Wind_Speed
17 17 17 16 17 17 17 18 18 20 20 20 21 21 22 23 24 25 24 24 24 25 25 23 24 25 26 27 26 26 27 28 27 27 28 28 27 24 24 25 25 24 24 24 23 21 21 21 21 20 19 18 14 12 14 15 15 15 15 14 13 13 13 12 12 11 10 9 7 6 6 5 4 5 7 9 9 8 8 10 11 11 12 13 13
14 16 18 17 17 17 16 17 18 19 19 20 21 22 23 25 25 25 25 27 27 28 28 26 25 26 27 28 29 28 28 28 29 29 29 29 28 26 26 27 27 26 26 26 24 21 21 22 23 21 18 16 13 12 15 16 15 15 14 15 15 15 15 13 12 11 10 9 7 7 7 6 6 7 7 8 10 10 10 10 11 12 13 13 14
11 14 16 16 16 17 17 17 17 18 19 20 21 21 22 22 23 25 26 28 29 31 33 32 30 30 29 30 30 30 29 29 30 31 29 28 28 28 27 27 28 28 28 28 27 24 21 21 24 23 20 18 16 15 16 16 15 14 14 15 16 17 16 14 13 11 10 9 8 7 8 8 8 7 7 9 9 9 10 11 12 13 14 13 15
10 11 13 14 15 16 17 16 16 18 19 19 20 20 21 20 22 26 28 29 31 33 36 35 34 34 34 32 32 32 31 30 30 30 30 29 29 28 27 26 26 27 28 27 26 26 24 22 23 24 23 21 19 17 18 18 17 16 15 15 16 17 17 15 14 13 12 12 12 11 11 11 9 9 10 11 10 10 13 15 15 16 16 14 15
12 11 12 12 13 14 15 16 17 18 18 18 19 19 20 21 23 27 28 30 32 33 36 37 37 37 36 34 34 34 34 33 32 32 32 32 31 29 28 27 26 26 26 25 25 25 25 24 23 23 24 24 21 20 21 20 19 19 18 16 16 16 15 14 14 14 14 13 13 12 12 13 13 12 12 13 14 15 15 15 16 16 16 16 16
15 12 13 14 15 17 17 16 17 16 16 16 17 18 20 21 24 26 26 28 31 33 35 37 39 40 38 36 36 37 35 33 33 34 34 34 33 30 29 29 28 27 26 25 26 25 25 25 25 24 23 25 24 23 23 21 20 20 19 18 17 15 14 14 14 14 14 12 12 11 12 12 14 14 13 13 14 15 15 15 16 16 15 17 19
14 13 14 15 15 16 15 14 14 15 14 14 14 16 17 19 22 24 24 25 28 31 34 36 39 41 41 40 39 39 36 34 34 35 34 34 34 32 29 29 29 28 27 27 27 27 25 24 25 24 24 26 26 26 25 24 21 20 19 17 17 17 16 14 15 15 15 16 16 15 14 14 14 14 13 12 13 14 15 16 17 18 18 19 20
13 14 16 16 13 12 11 12 15 14 13 13 13 14 15 17 19 21 22 23 25 28 32 36 38 40 42 42 42 41 39 37 37 36 35 33 33 32 29 28 28 27 26 26 25 25 26 25 24 25 25 26 25 24 24 23 20 20 19 18 18 19 19 17 16 15 16 17 17 16 15 14 14 14 14 13 14 15 16 18 20 22 22 21 20
13 14 15 14 13 12 12 14 15 13 12 13 14 14 15 17 18 19 20 21 24 27 29 33 36 39 41 43 44 44 41 40 39 37 35 34 34 33 31 29 29 28 26 25 24 23 24 25 25 25 25 25 24 24 23 20 19 20 19 19 19 19 20 20 19 18 18 18 18 17 17 17 16 16 16 15 16 16 16 17 19 20 21 21 21
12 13 12 11 11 11 12 13 13 12 13 13 13 14 15 16 17 18 20 21 24 27 28 30 33 35 38 42 46 47 44 41 40 38 37 36 35 34 32 30 29 28 26 25 24 23 23 24 25 25 24 24 24 25 22 20 21 21 20 19 20 20 20 21 21 20 19 19 19 19 19 19 19 18 17 16 16 16 16 16 18 19 20 20 22
10 10 10 9 10 10 10 10 11 12 13 12 12 13 14 14 16 17 19 22 25 28 30 32 33 33 36 40 44 48 47 44 42 40 39 39 38 36 34 32 29 27 25 24 24 24 23 23 24 24 24 24 23 23 23 23 24 25 24 23 21 20 21 22 23 22 20 20 20 19 19 19 19 18 17 16 16 16 17 17 17 18 18 19 20
8 8 8 8 9 9 9 10 10 11 12 11 11 12 13 13 14 16 18 21 23 25 27 31 32 32 34 37 40 44 46 43 39 40 39 38 38 37 35 33 31 28 26 25 23 23 22 22 22 23 23 23 23 23 23 24 25 27 28 27 25 23 22 23 24 24 22 21 21 21 21 20 20 19 18 17 17 18 17 17 18 19 20 20 21
8 8 9 9 8 8 9 9 10 10 10 10 10 11 12 12 13 16 17 18 18 18 19 23 27 28 30 34 37 39 43 41 36 37 38 35 35 36 33 31 29 27 26 25 24 23 22 22 22 22 21 20 21 22 23 23 25 26 27 28 28 28 26 26 26 26 26 26 26 27 26 24 24 23 21 20 21 22 22 23 23 24 25 25 25
9 9 9 9 8 8 8 8 9 9 9 9 8 9 11 11 12 14 16 16 15 13 13 15 21 24 27 33 35 35 40 41 37 36 37 35 34 34 31 28 27 27 27 27 27 26 23 22 22 22 22 20 19 20 21 23 25 25 25 25 26 27 28 29 30 31 32 33 33 33 31 30 29 28 26 25 24 24 24 25 26 27 27 27 28
9 10 9 8 8 8 7 8 8 7 8 8 8 8 10 11 12 13 14 14 13 11 11 13 17 21 25 31 34 34 37 41 38 36 36 35 33 33 32 30 29 28 28 29 28 27 27 25 24 23 24 24 23 21 20 21 23 25 25 26 26 26 26 26 27 29 30 30 31 32 30 29 29 28 28 27 27 27 27 28 29 29 30 31 31
10 10 9 8 7 7 7 7 7 7 7 7 7 8 9 10 12 12 11 11 11 11 11 12 16 21 23 28 31 32 35 38 39 36 35 34 33 32 32 32 30 29 28 29 29 28 28 28 27 27 27 26 26 25 24 23 23 24 26 27 27 26 25 24 24 24 23 23 24 26 27 26 26 26 26 25 26 26 27 28 29 29 31 32 33
10 10 9 8 7 7 7 8 7 7 7 8 7 8 9 10 11 10 9 9 10 11 11 9 11 17 20 23 26 27 30 34 36 34 32 33 33 32 31 31 31 30 28 28 29 29 28 28 28 29 28 27 26 26 27 27 27 27 28 27 26 27 25 23 22 23 23 23 24 26 27 28 27 27 26 26 26 26 27 29 29 29 31 33 33
11 11 10 9 8 8 8 7 8 7 7 7 7 7 9 9 9 8 8 7 8 9 9 6 4 10 15 20 23 25 27 30 30 28 27 29 31 30 30 29 29 29 28 27 28 29 31 30 30 30 29 28 27 27 27 28 29 30 30 29 29 30 29 26 25 25 26 27 27 27 28 28 29 29 30 29 29 29 29 31 30 30 31 32 33
12 11 10 9 9 9 8 8 8 8 7 7 7 7 8 8 8 7 7 7 6 6 6 4 1 6 11 15 21 24 25 25 25 24 24 27 27 28 28 28 29 29 28 27 26 27 29 30 31 31 30 29 30 29 29 30 31 32 33 32 33 33 30 28 28 28 28 28 29 29 28 28 29 30 30 29 28 28 28 28 28 28 29 31 32
12 11 10 10 9 8 8 8 7 7 7 7 7 7 7 7 7 7 6 6 5 5 4 2 1 4 7 9 14 19 20 22 23 24 24 25 25 25 27 28 29 29 27 25 24 25 25 26 28 28 29 30 31 31 31 32 33 34 34 35 36 34 30 27 27 27 27 28 29 29 28 28 29 28 28 27 27 27 26 26 27 27 28 30 32
12 12 11 10 9 8 8 8 7 6 7 6 5 5 5 6 6 6 5 5 5 5 4 4 4 5 6 8 11 14 15 17 20 21 22 23 23 23 24 26 27 25 23 22 23 23 24 24 25 26 27 29 30 30 31 31 31 32 33 33 33 31 28 26 25 24 25 27 28 28 28 28 29 28 27 27 27 27 26 26 27 28 29 31 33
12 12 10 9 9 8 8 8 7 6 6 6 5 5 5 5 5 5 4 4 4 4 4 4 5 6 7 10 11 12 13 15 16 18 19 19 20 21 22 24 24 21 21 22 23 22 22 22 23 24 25 26 26 27 28 29 30 31 31 30 29 27 26 26 25 25 26 27 28 28 28 27 28 28 27 27 27 27 27 28 28 28 28 29 31
12 11 11 10 9 9 8 8 7 6 6 5 5 5 5 5 5 5 5 5 4 4 4 4 4 6 7 9 11 13 15 16 17 18 19 19 19 20 21 23 22 20 21 23 22 22 22 21 22 23 23 24 25 26 27 28 28 28 27 26 26 26 26 26 25 25 26 27 27 28 27 27 28 29 28 27 27 27 27 27 27 26 26 27 28
13 13 12 11 10 10 9 8 8 7 6 6 5 5 5 5 5 6 6 5 4 4 4 4 4 5 7 9 11 13 15 17 18 19 20 20 21 21 21 22 22 22 22 22 22 23 23 22 23 23 23 24 24 24 25 25 24 24 24 24 24 24 24 24 24 25 27 27 27 27 26 26 27 27 26 24 24 24 23 23 23 24 25 26 27
13 14 14 13 12 12 11 9 9 8 8 7 6 6 5 5 5 6 6 6 5 3 3 5 5 5 5 7 10 11 13 15 17 18 19 20 21 21 21 21 22 22 22 22 23 23 23 23 22 22 20 19 18 18 19 20 20 21 22 23 24 24 24 24 24 25 26 26 26 25 25 25 25 23 22 21 20 20 21 23 24 25 25 26 26
13 14 14 14 13 13 12 11 11 11 10 8 7 6 6 5 6 6 5 5 5 4 3 4 5 5 5 7 8 9 10 12 14 15 16 18 19 20 20 20 21 21 21 21 22 22 22 22 21 20 18 17 16 16 16 16 17 19 20 21 22 23 23 22 22 23 24 24 24 23 22 20 17 16 18 19 19 21 23 24 23 23 23 24 25
14 14 14 13 12 13 13 13 13 13 11 10 8 8 7 6 7 7 5 5 5 5 6 6 5 5 6 6 7 8 9 10 12 13 14 15 17 18 19 20 20 20 20 20 21 21 21 20 20 20 20 19 18 17 16 16 16 17 17 18 19 19 20 20 19 20 21 20 20 19 18 17 16 17 19 21 21 21 21 20 20 21 21 22 23
16 14 13 13 13 13 13 12 14 15 14 12 10 9 8 8 7 7 7 6 5 5 6 6 5 5 6 6 6 8 9 9 11 12 12 12 14 15 17 18 19 19 19 19 19 19 19 19 20 21 21 20 19 17 17 17 17 16 17 16 16 16 16 16 16 16 16 15 15 16 18 19 20 20 20 17 16 16 16 16 18 20 19 20 21
16 16 15 14 14 15 14 12 12 14 14 13 12 12 11 10 10 9 9 8 7 6 6 6 6 6 7 6 7 8 9 9 9 9 10 10 11 12 13 14 16 16 17 17 17 17 18 19 21 21 20 20 19 18 18 18 18 17 16 15 14 13 12 12 12 12 11 12 13 14 15 16 16 15 12 9 10 13 14 14 14 13 12 13 13
16 16 18 18 16 16 16 13 12 13 13 13 13 13 13 13 13 12 10 9 8 8 7 7 8 8 8 8 8 8 9 9 8 8 8 9 10 11 10 10 10 11 12 13 14 16 17 18 20 20 19 18 17 17 17 17 17 15 13 11 11 10 10 11 11 12 13 13 12 11 11 11 10 9 8 8 11 13 11 9 8 7 7 8 9
19 19 21 21 19 17 16 14 12 13 13 13 12 11 11 12 14 14 13 11 10 10 9 9 10 10 10 9 8 9 9 9 9 8 7 8 10 11 11 11 11 11 11 12 13 15 16 16 17 16 15 15 15 14 14 14 13 12 10 10 10 11 12 13 15 17 17 16 14 13 12 11 10 9 9 10 9 7 5 6 6 6 6 8 8
22 23 24 24 22 19 17 15 14 13 12 13 13 11 10 10 11 12 13 13 13 12 11 10 11 11 11 10 9 9 10 9 9 9 9 9 10 10 10 11 12 12 12 12 13 13 13 13 13 12 12 13 13 12 11 11 10 9 9 10 10 11 12 14 16 16 16 15 16 16 13 11 11 10 9 8 4 2 4 6 6 5 6 7 7
27 28 28 26 23 22 20 17 16 15 15 14 14 13 11 10 10 10 10 10 11 12 12 12 12 12 13 12 11 11 11 10 10 10 10 10 10 10 10 11 12 12 12 12 12 12 11 11 11 10 10 11 11 9 9 10 11 11 11 11 11 12 13 15 15 15 15 16 19 17 12 10 10 9 7 4 2 3 5 6 5 5 5 6 6
31 32 31 27 23 21 22 20 17 17 17 16 14 13 11 11 12 12 12 10 10 10 12 14 14 14 13 13 12 12 11 11 10 10 10 10 10 10 11 11 11 11 11 11 12 12 11 11 10 10 9 10 11 11 12 15 17 16 15 15 15 16 18 18 17 18 19 18 16 12 10 9 9 6 4 3 3 4 4 4 5 5 5 4 4
29 30 29 26 20 16 18 19 17 17 18 17 17 16 13 11 12 13 14 12 10 9 10 12 14 14 14 12 12 11 11 11 11 10 10 10 10 11 11 11 12 12 13 13 13 13 12 11 11 10 11 13 15 15 16 19 19 19 19 19 19 20 20 19 19 20 19 16 10 8 8 8 7 5 5 4 3 3 3 3 4 5 4 3 2
27 26 23 20 16 14 14 15 15 16 18 18 18 17 15 13 13 13 13 13 11 10 11 11 12 13 14 13 13 12 12 11 11 11 11 11 11 11 12 12 12 12 13 13 14 13 12 13 14 14 14 16 17 17 17 19 19 19 19 18 17 17 16 14 13 13 12 10 9 8 8 7 5 4 5 5 3 3 3 2 3 4 5 3 2
23 20 19 19 18 18 18 17 16 16 18 19 18 17 16 15 14 13 14 14 13 13 15 15 13 12 13 13 14 14 14 13 13 13 12 13 12 12 12 12 11 10 10 11 12 12 12 14 16 17 16 16 18 17 17 16 16 16 16 16 15 13 12 10 11 10 9 6 6 5 3 3 1 1 4 5 3 2 2 1 2 4 6 4 3
18 15 16 20 21 20 21 22 20 19 19 20 19 18 17 16 16 15 15 16 15 15 18 19 16 15 15 14 14 15 16 16 16 15 15 14 14 13 13 13 12 12 12 11 11 12 12 13 15 16 16 16 16 15 14 14 13 14 15 15 15 15 15 13 11 10 8 5 2 1 1 1 1 2 4 4 1 2 1 1 1 3 6 6 4
16 12 13 20 24 23 23 24 23 21 20 21 21 20 18 17 17 17 16 16 16 16 18 19 18 18 17 16 16 17 17 17 18 17 16 16 15 14 14 15 14 15 15 15 14 13 13 12 13 14 15 15 13 10 9 10 12 13 13 12 12 12 13 11 9 7 6 4 4 2 3 4 3 2 1 2 3 4 2 1 2 5 6 6 5
16 14 15 19 24 25 23 23 23 21 20 20 22 21 20 19 18 17 17 17 17 17 18 18 18 18 18 16 15 16 16 17 17 18 17 17 16 15 16 17 17 17 16 16 17 16 14 12 12 12 13 13 13 13 13 14 15 15 15 14 11 8 7 7 6 5 5 5 5 6 7 6 5 4 4 4 5 4 3 1 3 5 5 5 5
18 18 17 18 22 25 25 24 24 23 22 23 23 22 21 20 18 17 17 18 17 17 18 18 17 19 20 18 15 14 15 15 15 17 18 18 17 18 18 18 19 18 17 17 17 16 14 12 12 13 14 15 17 18 18 17 16 14 13 13 11 7 5 5 6 6 5 6 9 9 7 6 7 7 6 5 4 3 2 1 2 2 2 4 4
19 20 20 19 20 25 28 26 23 21 22 22 22 22 21 20 18 17 18 19 18 18 18 17 17 20 22 20 17 17 16 15 15 17 17 17 16 17 18 18 18 19 18 18 17 15 13 12 13 16 18 20 20 18 16 15 14 12 10 8 8 9 9 9 8 8 9 10 10 9 8 8 7 5 4 3 2 2 3 6 5 3 1 2 1
19 21 22 22 21 24 27 26 23 21 20 20 21 21 20 19 19 19 19 19 19 18 18 17 17 20 21 20 18 18 17 17 18 17 15 15 15 15 15 15 14 15 16 17 17 16 15 14 16 19 21 20 18 16 15 14 14 13 12 10 8 10 12 11 11 12 12 10 10 10 9 7 4 2 3 4 2 0 3 4 4 4 2 2 1
20 22 24 24 23 24 25 25 23 21 20 20 22 22 21 20 19 19 19 19 19 19 19 17 17 20 21 19 18 18 17 17 18 17 16 16 17 18 18 16 14 13 15 17 18 18 18 18 19 21 19 16 16 15 13 13 14 14 13 13 12 12 12 12 12 12 11 10 9 8 6 4 3 2 4 5 5 4 4 2 4 6 6 4 3
23 23 24 24 24 25 25 25 23 21 20 21 22 22 22 21 20 19 20 20 19 20 20 18 17 19 21 19 18 18 18 16 16 17 18 19 20 21 21 20 16 16 17 18 18 18 19 19 20 20 17 14 15 14 13 14 16 14 13 13 14 14 14 14 12 11 9 9 10 8 4 4 5 3 3 7 10 9 7 5 5 7 8 7 6
24 25 25 24 25 26 26 25 25 23 22 21 22 22 22 22 21 21 21 20 19 19 19 19 18 18 20 20 19 19 19 18 17 18 19 21 22 22 22 20 17 17 19 19 19 21 21 20 20 20 18 16 16 16 15 15 16 14 13 13 14 13 13 13 13 12 12 13 14 12 8 7 8 7 7 9 8 5 3 4 5 6 7 8 7
23 25 25 24 25 26 26 25 26 26 24 22 21 21 21 21 21 21 21 21 21 20 19 18 19 19 19 20 21 19 18 18 17 17 17 18 19 21 21 19 18 19 20 19 20 23 22 20 20 20 18 18 20 20 18 17 17 15 14 15 15 13 12 12 13 15 15 14 14 14 11 10 9 9 8 8 7 4 4 7 9 7 6 7 8
22 25 25 25 25 25 24 24 24 24 24 22 21 21 21 21 21 21 21 21 21 21 20 19 19 19 19 20 19 18 16 15 13 12 14 16 18 20 21 18 18 19 20 20 21 22 21 21 21 21 19 20 20 18 16 17 19 19 18 18 19 18 16 14 16 18 17 13 11 11 11 11 12 11 9 9 9 9 9 11 12 11 10 9 9
23 24 24 23 23 23 23 23 22 22 21 20 20 21 23 23 22 22 22 21 21 21 21 19 19 18 19 19 19 17 17 15 13 12 14 16 18 20 20 18 18 19 19 20 21 22 21 22 23 22 22 21 20 17 17 20 22 21 19 19 21 22 21 19 19 20 18 15 12 12 11 11 10 7 6 8 10 11 11 13 12 11 11 11 9
21 21 21 21 23 24 24 23 24 23 22 21 22 24 25 24 23 23 23 22 21 21 21 21 20 19 18 18 18 18 18 18 17 16 16 17 19 20 19 18 18 18 17 18 21 23 24 24 23 21 20 20 20 19 21 23 22 20 20 21 21 22 23 23 23 22 20 17 15 14 14 12 10 9 9 10 10 9 11 12 11 10 12 13 12
18 19 20 21 23 26 25 24 24 24 23 23 24 25 26 24 23 23 23 22 21 20 20 20 19 19 18 18 18 19 19 19 18 18 18 18 19 20 19 17 18 18 18 20 23 24 24 24 21 17 16 18 21 23 25 25 22 21 22 22 22 21 21 21 21 21 20 17 16 15 14 14 14 14 15 15 12 11 12 12 12 13 13 13 12
Wind_Direction
201 213 219 224 232 230 225 224 226 229 230 229 231 232 232 232 233 232 225 218 214 216 221 219 217 215 212 211 211 210 212 209 208 213 216 220 222 221 219 219 221 219 216 217 213 209 217 220 217 216 218 220 216 217 229 221 209 222 229 220 218 225 230 232 229 220 214 221 239 256 251 230 229 242 240 255 274 273 272 279 277 276 280 285 289
202 211 216 222 233 236 232 229 227 230 231 233 234 233 234 235 236 235 228 223 220 217 218 218 217 218 215 213 212 211 213 212 210 212 214 218 221 221 222 221 222 223 221 223 219 212 217 224 221 217 217 216 208 215 233 228 211 211 218 223 228 231 235 239 236 236 234 225 225 241 242 243 265 269 256 261 274 271 270 276 279 281 287 294 295
205 207 210 215 223 229 233 232 231 232 234 237 238 238 239 239 239 238 231 227 227 224 222 219 215 215 214 214 214 212 213 214 213 214 215 217 218 218 221 223 224 225 227 227 223 214 213 221 223 219 217 218 215 217 228 230 222 220 222 227 232 230 231 237 238 242 244 234 230 231 241 261 268 255 261 281 286 280 279 282 280 280 284 283 277
204 207 209 212 218 223 229 231 231 233 233 237 240 241 243 241 238 238 235 232 231 228 227 223 218 215 213 213 214 212 212 213 213 212 211 213 216 216 220 226 226 225 226 225 223 218 215 217 221 219 218 219 220 224 230 231 233 238 235 228 230 233 230 228 230 234 235 235 239 236 234 241 237 227 241 257 261 266 277 282 283 283 287 285 275
197 206 209 211 218 226 230 228 228 228 228 232 236 238 241 241 240 241 240 236 234 232 230 228 224 221 216 214 215 213 212 212 214 214 212 211 213 214 216 222 225 227 226 221 220 221 220 219 219 219 221 221 220 224 231 233 236 240 237 232 236 240 233 227 230 236 241 247 255 254 243 237 236 239 246 251 257 264 269 274 279 283 288 293 291
193 199 206 208 213 221 226 228 229 228 226 231 235 237 241 243 246 249 247 242 240 239 237 233 230 227 222 216 216 216 213 211 216 220 219 215 214 214 215 218 221 226 228 223 222 223 221 221 221 221 225 224 222 224 227 229 233 233 232 234 237 238 235 234 237 240 243 245 247 250 248 247 250 254 257 259 264 267 268 272 277 280 281 283 287
196 196 206 211 215 218 216 221 231 231 229 232 237 243 248 252 255 257 256 253 249 247 243 238 234 232 228 223 221 220 214 209 214 219 220 217 215 215 218 219 220 224 227 227 228 225 221 224 227 225 225 227 228 228 226 224 229 233 232 233 235 236 237 236 237 238 240 241 244 250 258 266 271 273 273 273 271 272 276 279 281 284 286 284 285
202 199 208 214 218 217 211 221 231 232 232 235 242 251 258 262 264 264 262 258 254 252 248 243 238 235 232 229 227 226 220 213 214 217 219 216 211 211 214 217 219 221 226 230 232 230 223 223 227 225 225 230 233 235 231 224 228 236 236 237 239 239 239 237 237 239 240 244 247 252 260 267 272 276 279 277 273 273 277 281 285 289 292 292 292
209 209 217 217 213 212 217 228 232 231 236 244 253 261 264 265 267 268 267 264 260 258 253 247 242 237 233 230 229 228 222 215 213 215 215 214 210 209 209 211 215 217 220 225 230 233 228 224 226 227 228 231 235 238 235 228 232 239 239 239 242 243 243 241 239 240 241 244 246 246 250 254 257 265 271 273 275 278 281 283 284 285 286 289 294
222 216 220 216 211 213 220 229 232 234 245 256 267 273 272 274 276 274 275 275 271 266 259 249 244 239 234 231 229 226 220 214 211 211 212 212 210 208 207 211 215 215 216 220 224 229 232 230 230 230 230 234 238 241 238 231 234 239 237 237 239 242 243 242 241 241 240 243 246 248 252 255 259 265 270 274 280 284 286 286 285 285 286 288 292
228 215 213 212 218 226 229 235 239 246 256 265 272 275 277 284 287 284 283 283 278 272 263 251 244 241 236 232 230 227 221 213 210 210 211 212 211 209 210 212 212 210 213 219 221 225 230 234 236 235 233 234 238 242 242 238 238 238 238 238 240 241 242 242 242 242 242 246 252 255 258 262 266 269 272 276 280 281 280 279 279 282 284 285 287
224 219 220 222 229 236 238 242 247 255 267 275 279 282 287 292 292 292 294 293 287 277 264 251 244 242 238 233 232 231 224 216 212 211 211 212 213 213 214 215 215 214 215 218 221 225 229 233 238 240 238 236 236 238 241 243 243 242 240 239 240 242 244 245 245 245 248 254 257 259 260 263 266 268 271 274 276 275 273 270 269 271 274 276 278
223 225 230 236 240 242 242 244 249 258 269 278 283 288 294 294 291 294 299 301 297 286 268 251 242 239 237 233 232 231 224 217 212 211 211 211 212 214 215 216 218 219 216 216 218 221 225 230 235 238 239 240 242 242 244 246 249 250 250 248 246 246 247 250 251 252 256 259 260 261 262 263 265 265 266 267 268 269 270 269 269 269 270 272 274
227 231 236 241 241 243 244 244 251 259 268 277 283 286 291 291 289 295 302 307 308 298 277 253 240 235 231 229 229 228 223 217 212 210 212 212 212 213 212 211 213 214 215 217 219 218 219 223 229 233 234 234 237 242 245 248 250 253 256 256 255 254 253 254 255 256 259 262 264 265 266 267 268 267 267 266 266 269 271 272 273 273 275 276 277
231 235 237 239 239 244 245 244 251 260 267 277 283 285 290 291 291 296 303 309 313 305 286 263 246 237 229 225 227 227 224 219 212 209 212 213 211 210 210 212 216 219 221 224 225 223 222 224 227 230 231 230 230 234 241 244 244 247 251 255 258 259 259 261 262 262 263 264 266 268 268 268 269 269 269 268 267 269 270 272 274 277 278 280 279
232 238 238 237 240 244 244 246 254 259 267 278 281 284 291 295 298 300 303 307 309 309 304 280 252 239 229 224 227 230 227 219 211 207 209 210 209 209 212 218 224 227 228 229 229 229 228 230 231 232 232 234 235 239 243 245 246 248 252 256 260 261 262 264 265 265 266 268 270 272 273 272 271 271 270 269 268 270 272 273 275 278 281 282 282
230 238 242 241 240 243 244 250 257 260 271 280 281 284 291 297 302 304 305 307 305 312 327 312 256 237 226 219 222 227 224 216 210 206 206 207 210 212 216 222 227 230 231 232 233 233 233 234 236 237 238 239 241 243 244 246 249 252 254 256 259 263 264 263 260 261 266 269 270 272 274 274 275 274 273 271 270 269 269 271 274 279 283 284 284
225 232 241 243 243 245 246 249 254 258 269 280 282 286 294 299 306 310 311 314 309 314 336 344 265 230 220 216 218 219 217 212 209 207 205 207 212 215 218 223 226 228 229 231 234 236 236 237 240 243 244 245 245 245 246 248 251 254 255 256 257 261 263 262 260 263 268 270 269 269 271 273 273 275 275 275 273 271 270 271 275 279 281 282 285
223 227 231 236 241 245 245 248 254 257 265 276 280 285 295 301 306 311 310 314 316 313 324 352 151 204 211 214 214 213 211 208 206 205 204 207 212 216 219 222 224 226 227 230 234 237 238 241 244 246 249 251 251 250 249 252 254 255 258 259 260 260 263 264 264 265 268 269 269 269 272 274 275 275 276 275 273 271 271 273 274 275 276 279 283
223 224 225 229 236 241 244 248 251 253 260 269 273 279 289 299 309 316 313 311 315 309 294 287 164 181 196 200 201 204 206 206 206 205 204 206 210 215 221 225 227 228 228 230 235 238 240 243 248 250 253 255 256 255 254 255 256 257 260 262 262 264 267 268 268 268 269 269 269 271 273 275 276 276 275 274 272 272 275 277 276 275 276 281 285
222 221 222 228 235 236 238 244 245 249 259 265 266 269 276 292 310 322 319 312 316 313 292 255 216 191 180 178 184 191 196 199 202 205 207 208 211 216 222 226 228 230 231 233 238 243 244 245 250 255 257 257 257 258 257 257 257 258 261 263 264 266 269 269 268 267 266 267 269 273 275 275 276 276 277 277 277 278 282 284 282 280 281 284 287
225 221 221 225 231 231 233 239 241 247 259 263 258 258 266 277 293 300 297 292 291 297 297 268 227 206 196 191 192 195 198 199 202 207 211 213 215 219 224 226 226 229 233 236 241 245 248 250 253 255 256 256 256 256 256 257 258 259 261 262 262 263 264 264 266 268 268 269 271 273 274 275 277 280 282 283 284 286 287 285 281 280 281 283 284
227 219 220 223 224 225 230 235 237 240 250 258 256 254 254 254 264 276 281 275 256 250 270 270 241 220 213 207 203 203 205 207 209 212 215 218 220 222 224 227 229 231 236 241 245 247 251 255 254 253 253 255 256 255 255 257 258 257 257 259 261 262 262 262 264 266 267 269 271 272 273 275 278 281 284 287 289 289 286 282 279 279 280 282 282
225 217 218 221 222 224 227 232 238 241 243 249 256 257 249 243 253 267 274 275 261 229 220 232 235 231 224 213 208 209 211 212 216 219 220 221 223 224 225 228 231 234 238 243 247 249 252 253 251 252 255 257 255 254 254 255 255 254 255 256 258 260 261 261 261 261 262 263 265 269 272 275 279 283 286 287 287 285 283 282 282 283 283 285 286
225 219 220 220 220 222 224 229 240 245 243 242 247 257 259 251 251 261 268 273 276 263 216 201 196 206 214 207 204 208 211 213 217 221 224 225 226 228 228 228 230 233 236 240 243 245 247 248 249 251 251 248 248 251 251 251 251 251 251 253 254 256 258 260 259 257 258 260 263 268 272 276 280 284 284 281 280 282 285 287 287 287 287 288 288
231 225 226 226 224 225 228 231 236 241 244 244 243 249 257 258 257 261 260 256 261 264 241 215 194 186 195 197 197 202 208 213 217 220 222 224 225 226 226 226 227 230 233 236 237 239 240 240 242 242 240 243 252 258 257 254 254 254 254 253 253 254 256 258 257 257 259 262 265 268 270 272 274 275 275 277 280 282 283 285 285 283 282 283 283
241 231 228 228 228 231 235 233 231 233 238 241 244 248 250 252 261 268 262 249 244 235 230 230 215 196 197 197 194 198 205 212 218 220 220 221 222 222 224 225 225 227 231 233 234 234 235 235 236 238 244 252 257 258 257 256 257 258 258 257 256 256 257 257 256 257 259 262 264 265 264 261 259 261 266 271 275 274 271 272 274 274 274 276 278
253 245 237 230 227 233 240 235 227 227 230 232 237 245 245 242 248 260 264 261 257 244 238 242 235 215 211 208 202 206 212 213 215 218 221 222 221 219 220 222 225 227 229 231 231 231 232 233 236 240 246 250 251 252 253 254 255 256 256 256 256 256 253 251 252 253 254 257 261 265 266 265 263 262 262 264 268 269 268 267 270 273 274 275 280
248 244 241 235 229 233 242 242 229 222 221 220 223 228 233 233 233 240 247 250 251 249 245 245 243 232 224 216 210 215 223 221 216 217 220 220 219 218 218 220 224 225 226 227 230 232 234 237 239 242 245 247 248 249 249 250 253 253 252 251 249 245 240 239 242 241 241 253 268 273 269 265 264 261 257 257 265 269 270 271 274 280 284 284 289
241 241 238 234 229 231 238 242 233 221 213 211 217 225 229 231 232 236 242 245 247 250 248 242 241 239 232 225 222 227 233 232 228 226 221 213 212 217 219 219 218 217 216 219 224 229 233 238 242 245 246 246 247 247 247 248 248 245 240 236 232 230 232 232 228 229 237 250 264 269 263 258 255 250 242 243 253 262 275 291 302 312 316 307 303
238 242 235 228 225 225 227 228 228 225 215 208 215 228 233 232 233 238 244 247 248 250 251 246 240 237 232 227 227 236 239 237 237 237 228 215 215 220 222 220 218 214 210 211 217 223 228 236 242 246 245 244 244 244 242 241 238 233 231 229 220 218 229 232 232 239 242 238 233 235 239 243 245 242 240 244 249 263 299 317 319 321 316 305 300
242 239 232 228 225 221 219 219 223 226 216 204 207 220 231 236 239 242 245 248 249 248 248 245 241 239 236 231 230 235 237 234 232 230 225 222 226 230 228 224 223 220 216 216 218 221 226 233 238 238 235 236 236 231 227 232 236 231 229 227 216 214 228 234 237 242 242 236 237 239 238 239 244 245 244 249 260 298 296 283 282 289 291 291 297
243 238 233 230 226 220 217 216 217 220 218 209 207 212 218 225 238 250 251 249 251 252 249 245 241 238 239 240 239 237 235 233 230 227 226 227 229 230 229 228 227 225 223 221 221 219 217 223 230 231 230 234 235 227 219 226 226 214 207 208 206 212 228 236 240 244 247 250 253 251 239 235 244 246 241 236 232 244 256 259 260 266 271 280 298
241 238 233 229 225 222 221 218 216 219 221 215 211 214 214 212 225 246 253 249 251 257 254 247 242 238 237 242 244 243 241 239 236 235 235 233 228 226 225 224 222 223 224 225 225 219 210 214 228 234 228 226 228 222 214 215 216 214 214 217 217 222 232 240 245 250 254 256 253 244 233 236 242 237 221 208 215 236 252 261 262 264 265 272 306
248 243 236 229 226 227 227 222 219 221 224 220 216 218 218 211 219 239 250 251 256 263 257 247 242 240 238 238 239 241 242 240 240 240 240 238 235 233 231 228 227 228 229 231 233 228 213 206 217 229 226 220 219 218 217 219 223 225 226 226 225 226 232 238 243 249 253 252 240 225 229 237 236 220 201 188 205 241 257 269 277 284 279 266 312
261 255 250 244 242 243 240 233 227 227 231 230 223 219 219 219 220 229 240 246 254 262 258 248 240 237 236 234 234 237 237 235 235 235 235 236 236 235 236 237 238 239 240 237 235 231 216 202 205 216 224 223 223 226 228 228 228 225 224 225 226 225 229 235 240 246 250 243 227 226 231 231 236 228 195 174 181 238 258 278 298 303 298 294 29
279 279 273 261 249 243 243 243 241 237 237 237 231 223 220 220 220 224 231 234 235 241 248 250 246 240 238 234 231 232 232 232 234 234 235 238 238 236 236 234 228 231 240 237 225 218 212 206 205 211 220 223 223 223 223 223 221 217 218 222 220 215 217 223 226 238 254 248 230 235 235 212 216 158 144 148 164 226 272 315 305 304 317 347 46
306 311 282 255 242 237 240 244 243 236 232 234 234 228 224 222 220 222 228 230 227 230 240 247 247 246 247 244 237 234 232 231 234 236 237 240 241 241 238 228 214 211 223 231 224 214 211 210 210 213 217 219 218 216 214 213 216 219 223 228 226 219 222 227 227 235 246 236 186 155 145 177 304 47 95 110 163 235 261 327 308 324 346 9 14
312 309 269 245 236 232 234 239 237 229 226 231 232 229 226 226 223 219 223 229 228 228 235 243 246 248 249 244 239 237 235 235 237 240 241 242 243 241 236 229 221 212 211 218 224 220 213 213 216 215 212 211 213 215 209 209 222 227 224 227 232 225 220 222 223 217 204 157 125 143 188 204 245 264 124 143 230 226 211 284 318 329 347 8 3
298 281 257 240 232 229 231 236 236 231 229 231 231 227 226 227 224 220 223 228 228 226 231 237 244 249 249 243 237 236 238 240 243 245 246 246 246 243 238 233 231 223 211 211 221 222 215 217 221 216 205 201 208 215 211 209 222 228 220 218 228 226 207 204 206 187 150 134 166 209 214 206 206 200 187 212 229 209 172 203 312 323 329 341 338
291 278 264 249 235 229 229 233 234 232 230 230 229 227 225 225 224 222 223 228 230 229 230 231 237 245 250 249 245 242 242 243 244 244 246 248 249 250 246 241 239 235 221 213 219 220 213 212 214 210 207 211 217 222 220 215 218 223 219 216 217 213 209 218 207 181 171 187 201 211 216 208 197 189 194 210 205 148 135 252 330 341 279 263 295
287 280 271 261 245 233 229 229 231 231 231 231 230 227 225 225 225 223 225 230 231 231 232 232 236 243 248 250 250 249 247 245 242 241 245 247 248 251 250 244 243 241 228 215 215 219 214 208 205 206 214 222 223 220 215 208 205 213 224 222 207 202 214 227 215 196 200 207 201 196 204 213 209 194 191 203 163 138 224 262 300 332 279 217 328
280 280 272 264 252 239 232 227 225 226 229 232 233 230 226 226 224 223 226 231 230 230 232 233 236 243 249 250 248 245 244 243 240 238 238 240 242 249 252 244 237 235 223 211 211 219 220 214 213 221 229 230 221 212 205 197 195 206 219 221 213 206 209 215 217 211 203 199 200 205 208 213 216 195 197 226 263 166 214 249 291 300 255 165 40
271 274 272 265 252 241 235 229 225 226 228 230 232 232 229 226 223 221 224 228 228 229 230 231 235 243 246 241 236 237 241 244 241 235 228 229 235 242 246 242 234 225 218 212 213 218 219 215 219 229 234 221 204 205 210 203 199 206 213 215 219 216 206 206 220 223 205 192 206 217 206 198 221 203 189 219 241 227 199 231 304 295 272 260 287
270 269 270 262 245 237 235 229 223 223 226 228 231 233 230 225 222 221 225 229 229 229 228 227 231 240 244 240 239 245 249 250 247 238 227 226 232 236 236 236 232 226 222 219 215 215 217 218 219 223 222 208 203 214 218 207 203 209 215 217 221 220 209 204 215 224 208 195 204 209 198 213 238 234 201 230 249 250 238 250 294 300 289 286 283
278 273 268 255 238 233 233 225 217 216 221 225 231 233 231 226 224 224 226 228 228 229 230 226 223 231 242 246 247 251 253 254 256 249 233 225 228 232 233 231 227 226 227 222 212 209 215 219 218 215 209 203 208 221 223 209 201 207 218 220 220 222 221 214 209 211 211 209 207 203 199 214 230 229 227 244 266 281 257 255 282 291 286 286 282
286 279 269 253 237 231 227 220 215 215 217 219 226 232 232 230 228 228 228 228 226 227 230 227 221 223 236 244 248 252 254 256 257 251 235 225 226 231 233 230 225 227 230 222 210 210 217 218 214 211 207 204 211 222 224 212 203 206 217 218 213 215 226 225 212 209 215 220 218 213 207 209 217 222 231 255 277 285 258 256 263 264 270 283 285
288 283 273 257 241 232 228 225 223 222 219 218 222 231 235 234 232 230 230 230 228 226 227 228 225 224 229 238 245 250 254 255 251 237 226 225 227 231 232 230 226 228 228 217 208 213 221 219 211 208 207 208 215 220 218 212 212 215 219 218 212 210 213 214 214 217 220 220 218 216 215 217 219 219 226 246 256 254 257 263 262 256 260 270 273
283 281 276 262 246 238 238 237 234 232 229 225 225 230 234 234 233 232 231 231 230 228 227 227 228 228 228 231 236 238 242 247 250 240 230 228 228 230 233 231 224 220 216 207 204 211 219 218 215 212 209 212 217 215 210 215 222 225 224 224 221 216 212 211 217 225 229 227 223 222 222 223 224 226 236 245 244 245 259 273 273 264 262 265 264
275 275 274 264 249 240 239 239 236 233 230 225 225 231 234 234 234 234 233 231 229 230 230 229 229 230 230 232 233 231 230 234 237 236 233 231 230 233 236 229 216 208 204 202 207 214 219 222 223 219 211 213 219 218 216 221 227 226 225 228 228 223 220 219 221 228 234 237 235 233 231 227 224 228 236 239 242 252 266 273 272 266 261 259 259
266 266 269 266 253 242 238 238 236 232 226 221 222 229 234 234 234 235 234 231 229 230 231 231 230 229 230 231 232 232 231 231 230 230 230 229 230 235 236 225 213 210 211 211 213 219 223 226 227 222 210 210 218 223 226 229 227 220 221 228 231 229 228 226 226 229 234 236 236 239 241 238 234 232 231 231 236 247 252 253 256 259 256 254 258
Height
1505 1505 1506 1506 1507 1509 1512 1514 1516 1518 1520 1521 1522 1524 1526 1527 1528 1529 1530 1531 1534 1537 1539 1539 1540 1541 1541 1541 1542 1543 1544 1545 1547 1548 1549 1551 1553 1555 1556 1558 1559 1561 1564 1566 1568 1570 1571 1572 1573 1574 1575 1576 1575 1576 1577 1577 1578 1579 1581 1582 1582 1583 1583 1582 1582 1582 1582 1583 1583 1583 1583 1583 1583 1582 1582 1582 1582 1583 1583 1583 1583 1583 1583 1583 1583
1504 1504 1504 1505 1506 1507 1510 1512 1514 1516 1518 1519 1520 1522 1523 1524 1526 1527 1527 1529 1531 1534 1535 1535 1536 1537 1537 1537 1538 1540 1541 1542 1544 1546 1547 1549 1551 1553 1554 1556 1558 1560 1562 1564 1565 1568 1569 1570 1571 1572 1573 1574 1574 1574 1575 1576 1577 1578 1579 1580 1582 1583 1582 1582 1581 1581 1581 1582 1582 1582 1582 1582 1582 1582 1581 1582 1582 1582 1582 1582 1582 1581 1581 1581 1581
1503 1504 1504 1505 1506 1507 1508 1510 1511 1514 1516 1517 1518 1519 1520 1523 1524 1525 1525 1526 1528 1530 1530 1531 1532 1532 1532 1533 1535 1537 1538 1539 1541 1542 1544 1547 1548 1551 1553 1554 1556 1558 1559 1561 1563 1565 1567 1568 1569 1570 1571 1572 1573 1573 1574 1575 1576 1577 1578 1579 1580 1581 1582 1581 1580 1580 1580 1581 1581 1582 1582 1581 1581 1581 1581 1581 1581 1580 1581 1581 1581 1581 1581 1581 1581
1502 1503 1504 1505 1506 1507 1507 1508 1510 1512 1514 1515 1516 1516 1518 1520 1521 1522 1522 1523 1524 1525 1526 1527 1528 1528 1528 1530 1531 1534 1536 1537 1538 1539 1541 1544 1546 1548 1551 1552 1554 1555 1557 1559 1560 1562 1564 1565 1566 1567 1569 1570 1571 1573 1573 1574 1575 1576 1577 1578 1578 1579 1580 1580 1579 1579 1579 1580 1580 1580 1580 1580 1581 1581 1581 1580 1580 1580 1580 1580 1580 1580 1580 1580 1580
1501 1502 1503 1504 1505 1506 1507 1508 1509 1511 1512 1513 1513 1514 1515 1516 1517 1518 1519 1519 1520 1520 1521 1522 1523 1524 1525 1527 1528 1529 1531 1533 1535 1536 1538 1541 1543 1546 1548 1549 1551 1553 1555 1557 1558 1560 1561 1563 1564 1565 1566 1567 1569 1571 1572 1573 1574 1575 1576 1577 1577 1577 1578 1578 1578 1578 1578 1578 1579 1579 1579 1579 1579 1579 1579 1579 1579 1579 1579 1579 1579 1579 1578 1578 1578
1501 1502 1503 1504 1505 1505 1506 1507 1508 1509 1510 1511 1512 1512 1513 1513 1513 1514 1515 1516 1516 1516 1517 1518 1518 1519 1521 1523 1524 1526 1527 1530 1531 1532 1535 1537 1540 1542 1544 1547 1548 1550 1552 1554 1556 1558 1559 1560 1561 1563 1563 1565 1566 1568 1569 1570 1572 1573 1574 1575 1576 1576 1576 1577 1577 1577 1577 1577 1577 1577 1577 1577 1578 1578 1578 1578 1578 1578 1578 1578 1577 1577 1577 1577 1576
1500 1502 1502 1503 1503 1504 1504 1505 1506 1507 1508 1509 1509 1509 1510 1510 1510 1510 1511 1512 1512 1512 1512 1513 1514 1515 1516 1518 1520 1522 1524 1526 1527 1528 1531 1533 1536 1538 1541 1543 1545 1547 1549 1552 1553 1555 1557 1558 1559 1560 1561 1562 1563 1565 1566 1568 1569 1570 1571 1573 1574 1574 1574 1575 1575 1575 1575 1575 1575 1576 1576 1576 1576 1576 1576 1576 1576 1576 1576 1576 1575 1575 1575 1575 1574
1499 1500 1501 1501 1502 1502 1503 1504 1504 1505 1506 1506 1507 1506 1506 1507 1506 1506 1507 1507 1507 1507 1507 1508 1509 1510 1511 1513 1515 1517 1519 1522 1523 1525 1527 1529 1532 1534 1537 1540 1542 1545 1547 1549 1551 1552 1554 1556 1557 1558 1559 1560 1561 1562 1564 1565 1567 1568 1569 1570 1571 1572 1572 1573 1573 1573 1573 1573 1574 1574 1574 1574 1574 1574 1574 1575 1575 1574 1575 1574 1573 1573 1572 1572 1571
1496 1497 1498 1499 1500 1501 1502 1502 1502 1503 1503 1503 1503 1503 1503 1503 1503 1503 1502 1502 1502 1501 1501 1502 1502 1504 1506 1508 1510 1512 1514 1517 1519 1521 1524 1526 1528 1531 1534 1537 1539 1542 1544 1546 1548 1550 1551 1553 1554 1555 1557 1558 1559 1560 1562 1563 1565 1566 1567 1567 1568 1569 1569 1570 1570 1571 1571 1571 1571 1572 1572 1572 1572 1572 1572 1572 1573 1573 1573 1572 1571 1570 1570 1569 1568
1494 1495 1496 1496 1498 1498 1499 1500 1500 1500 1500 1500 1500 1500 1500 1500 1499 1499 1498 1497 1496 1496 1496 1496 1496 1498 1500 1501 1504 1506 1509 1512 1515 1518 1520 1523 1525 1528 1531 1534 1536 1538 1541 1543 1545 1547 1549 1550 1552 1553 1555 1556 1557 1558 1560 1561 1563 1564 1565 1565 1566 1566 1567 1567 1568 1568 1569 1569 1569 1570 1570 1570 1570 1570 1570 1570 1570 1570 1570 1570 1569 1568 1568 1566 1565
1492 1493 1494 1494 1495 1496 1497 1497 1498 1498 1498 1497 1497 1496 1496 1496 1495 1495 1494 1493 1491 1490 1489 1490 1490 1492 1494 1495 1498 1500 1503 1508 1511 1515 1517 1520 1523 1526 1528 1531 1533 1535 1538 1540 1542 1545 1547 1548 1549 1551 1552 1553 1555 1557 1558 1559 1560 1561 1562 1563 1564 1564 1564 1565 1565 1565 1566 1567 1567 1567 1567 1567 1568 1568 1569 1568 1568 1568 1568 1567 1566 1565 1565 1563 1562
1490 1491 1492 1493 1494 1494 1495 1495 1495 1495 1495 1495 1494 1493 1493 1493 1492 1491 1490 1488 1486 1484 1483 1483 1485 1487 1488 1490 1492 1495 1499 1504 1508 1511 1515 1518 1520 1523 1526 1528 1531 1533 1535 1537 1540 1542 1544 1546 1547 1548 1550 1551 1553 1555 1555 1556 1557 1558 1560 1561 1561 1562 1562 1563 1563 1563 1564 1564 1564 1565 1565 1565 1566 1566 1567 1567 1566 1566 1565 1564 1563 1562 1561 1560 1559
1489 1490 1490 1491 1492 1492 1493 1493 1493 1493 1493 1493 1492 1491 1491 1490 1489 1488 1486 1484 1482 1479 1478 1478 1480 1482 1484 1485 1488 1491 1496 1501 1505 1509 1512 1515 1518 1520 1523 1526 1528 1530 1532 1534 1537 1539 1541 1543 1545 1546 1548 1549 1551 1552 1553 1554 1554 1555 1557 1558 1559 1560 1560 1561 1561 1561 1562 1562 1561 1562 1562 1563 1563 1563 1564 1564 1563 1562 1561 1560 1560 1558 1557 1557 1556
1488 1488 1489 1490 1490 1491 1491 1491 1491 1492 1491 1491 1491 1490 1490 1489 1487 1486 1484 1482 1480 1477 1476 1476 1477 1479 1480 1482 1485 1488 1491 1496 1501 1506 1509 1513 1515 1518 1521 1524 1526 1528 1529 1531 1534 1536 1538 1540 1541 1543 1545 1546 1548 1549 1549 1550 1551 1552 1553 1554 1555 1557 1558 1559 1559 1559 1560 1559 1559 1559 1560 1561 1560 1560 1561 1561 1560 1559 1558 1557 1556 1555 1554 1553 1552
1487 1487 1488 1488 1489 1489 1489 1490 1490 1490 1490 1489 1489 1488 1488 1486 1485 1483 1481 1479 1478 1476 1475 1475 1475 1476 1478 1480 1482 1484 1488 1493 1499 1503 1506 1510 1512 1515 1518 1521 1523 1525 1527 1529 1531 1534 1535 1537 1538 1540 1541 1543 1544 1545 1546 1547 1547 1548 1549 1550 1551 1552 1553 1554 1556 1557 1557 1557 1556 1556 1556 1557 1557 1557 1557 1557 1557 1556 1555 1554 1552 1552 1551 1549 1548
1486 1486 1486 1487 1487 1488 1488 1488 1488 1488 1488 1488 1487 1487 1486 1484 1483 1482 1480 1478 1477 1475 1474 1474 1473 1474 1476 1478 1480 1482 1485 1491 1496 1500 1503 1507 1510 1513 1515 1518 1521 1523 1525 1527 1529 1531 1532 1534 1535 1536 1538 1540 1542 1543 1543 1543 1544 1545 1545 1546 1547 1548 1549 1550 1551 1552 1553 1554 1554 1554 1553 1554 1554 1554 1554 1554 1554 1553 1552 1550 1549 1548 1547 1545 1544
1485 1485 1485 1485 1486 1486 1486 1486 1486 1486 1486 1486 1485 1485 1484 1483 1482 1480 1479 1478 1476 1474 1473 1472 1471 1472 1475 1477 1479 1481 1484 1489 1494 1498 1501 1504 1507 1510 1513 1516 1519 1521 1523 1525 1526 1527 1529 1531 1532 1533 1535 1537 1538 1539 1540 1540 1541 1542 1542 1542 1543 1543 1545 1546 1547 1548 1549 1550 1551 1551 1551 1551 1551 1551 1551 1551 1550 1550 1549 1547 1546 1545 1543 1541 1540
1483 1483 1484 1484 1484 1484 1484 1484 1484 1484 1484 1484 1484 1483 1482 1481 1481 1480 1479 1478 1476 1475 1473 1472 1471 1472 1475 1477 1479 1481 1483 1487 1492 1496 1499 1502 1505 1508 1511 1513 1516 1518 1520 1522 1523 1524 1526 1528 1529 1530 1531 1533 1534 1535 1536 1537 1537 1537 1537 1538 1539 1539 1540 1542 1543 1544 1545 1546 1547 1547 1548 1548 1548 1548 1548 1548 1547 1547 1545 1543 1543 1543 1540 1538 1536
1482 1482 1483 1483 1482 1483 1483 1483 1483 1483 1483 1483 1482 1482 1481 1480 1480 1479 1478 1478 1477 1476 1474 1474 1474 1474 1476 1478 1480 1482 1484 1487 1491 1495 1497 1500 1503 1506 1508 1511 1513 1515 1517 1519 1520 1521 1523 1524 1525 1526 1528 1529 1530 1532 1533 1533 1533 1533 1533 1534 1534 1535 1537 1539 1539 1540 1541 1542 1542 1543 1544 1544 1544 1544 1544 1544 1544 1543 1542 1541 1540 1540 1537 1535 1533
1481 1481 1482 1482 1482 1481 1481 1481 1481 1481 1481 1481 1481 1480 1480 1479 1479 1479 1478 1478 1477 1477 1476 1475 1475 1476 1477 1478 1480 1482 1485 1488 1491 1494 1496 1499 1502 1504 1506 1508 1510 1512 1515 1517 1518 1518 1519 1520 1521 1522 1524 1525 1526 1528 1529 1529 1529 1529 1529 1529 1529 1531 1533 1535 1535 1536 1537 1537 1538 1539 1539 1540 1541 1541 1540 1540 1540 1539 1539 1538 1537 1536 1534 1532 1531
1480 1480 1480 1480 1481 1480 1480 1480 1480 1479 1479 1479 1479 1479 1479 1479 1479 1478 1478 1478 1477 1477 1477 1477 1477 1477 1478 1479 1480 1483 1485 1488 1491 1494 1496 1499 1501 1502 1504 1506 1507 1510 1514 1516 1516 1516 1516 1517 1517 1518 1519 1520 1522 1523 1524 1525 1526 1525 1525 1526 1526 1528 1530 1530 1531 1532 1533 1534 1534 1535 1535 1535 1536 1537 1537 1537 1536 1536 1535 1534 1532 1531 1530 1528 1526
1479 1479 1479 1479 1479 1479 1479 1479 1479 1479 1479 1478 1478 1478 1477 1478 1478 1478 1478 1478 1477 1478 1478 1477 1478 1478 1479 1480 1481 1484 1486 1488 1491 1493 1496 1498 1499 1501 1502 1503 1505 1508 1511 1513 1513 1513 1513 1513 1514 1514 1515 1516 1518 1519 1520 1521 1522 1522 1522 1523 1524 1525 1526 1526 1528 1529 1529 1530 1531 1531 1531 1531 1532 1533 1533 1533 1532 1531 1530 1529 1528 1526 1524 1523 1522
1478 1478 1478 1478 1478 1478 1478 1478 1478 1478 1478 1478 1478 1477 1477 1477 1477 1477 1477 1477 1478 1478 1478 1478 1478 1479 1479 1480 1482 1483 1485 1487 1489 1492 1494 1496 1497 1499 1500 1502 1503 1506 1508 1508 1508 1508 1509 1510 1511 1511 1512 1513 1514 1515 1516 1516 1517 1518 1519 1520 1521 1522 1523 1524 1525 1525 1526 1527 1527 1527 1527 1528 1529 1529 1529 1529 1528 1527 1525 1524 1523 1521 1520 1518 1518
1477 1477 1477 1477 1477 1477 1477 1476 1477 1477 1477 1477 1477 1477 1477 1477 1476 1477 1477 1477 1477 1478 1478 1478 1479 1479 1480 1481 1482 1483 1485 1486 1488 1490 1492 1493 1495 1497 1498 1500 1501 1503 1504 1504 1504 1504 1505 1507 1508 1509 1509 1510 1511 1511 1512 1513 1513 1514 1515 1517 1518 1518 1519 1520 1521 1523 1523 1524 1524 1524 1525 1526 1526 1526 1525 1524 1523 1522 1521 1520 1519 1517 1516 1514 1513
1476 1476 1476 1476 1476 1476 1475 1475 1475 1475 1476 1476 1476 1476 1476 1476 1476 1476 1476 1476 1476 1477 1477 1478 1479 1479 1480 1481 1482 1483 1484 1485 1487 1488 1490 1492 1493 1495 1496 1498 1499 1499 1500 1501 1501 1502 1503 1505 1505 1506 1507 1508 1508 1509 1510 1510 1511 1512 1513 1514 1514 1515 1516 1517 1518 1520 1520 1521 1522 1522 1523 1523 1523 1522 1521 1520 1519 1518 1517 1516 1514 1513 1511 1510 1509
1475 1475 1475 1475 1475 1475 1474 1474 1475 1474 1475 1475 1475 1475 1475 1475 1475 1475 1475 1475 1476 1476 1477 1478 1478 1479 1481 1481 1482 1483 1483 1484 1485 1487 1489 1490 1491 1493 1494 1495 1496 1496 1497 1498 1498 1499 1501 1502 1503 1504 1505 1506 1507 1507 1508 1508 1509 1509 1510 1511 1511 1512 1513 1514 1516 1517 1517 1518 1519 1519 1519 1519 1519 1518 1518 1517 1516 1515 1514 1513 1511 1509 1508 1507 1506
1477 1476 1475 1475 1474 1474 1473 1473 1473 1473 1474 1474 1474 1474 1474 1474 1475 1474 1474 1475 1475 1475 1476 1477 1477 1479 1480 1481 1482 1483 1484 1484 1485 1486 1488 1489 1489 1490 1491 1492 1493 1494 1494 1495 1496 1498 1499 1500 1501 1502 1503 1504 1504 1505 1505 1506 1506 1507 1507 1508 1509 1510 1511 1512 1513 1514 1515 1515 1516 1516 1516 1516 1516 1515 1515 1514 1514 1513 1511 1510 1509 1507 1507 1506 1505
1479 1478 1477 1476 1474 1473 1472 1471 1471 1471 1472 1472 1472 1473 1473 1473 1474 1473 1473 1474 1474 1475 1475 1476 1476 1478 1479 1480 1481 1482 1483 1484 1485 1485 1486 1487 1487 1488 1488 1489 1490 1491 1492 1493 1494 1496 1497 1498 1499 1500 1500 1501 1502 1502 1503 1503 1504 1504 1505 1506 1507 1508 1509 1510 1510 1511 1511 1512 1512 1512 1512 1512 1512 1512 1512 1511 1511 1510 1509 1508 1507 1506 1505 1504 1503
1477 1478 1477 1475 1473 1471 1470 1469 1469 1469 1469 1470 1470 1471 1471 1472 1472 1472 1472 1473 1473 1473 1474 1475 1475 1476 1477 1478 1480 1480 1481 1482 1483 1484 1485 1485 1485 1486 1487 1487 1488 1489 1490 1491 1492 1494 1495 1495 1496 1497 1498 1498 1499 1500 1500 1501 1501 1502 1503 1504 1504 1505 1506 1507 1507 1508 1509 1509 1509 1510 1510 1509 1509 1509 1509 1509 1508 1507 1506 1505 1505 1504 1503 1503 1502
1474 1476 1475 1473 1472 1470 1468 1467 1467 1466 1467 1468 1468 1468 1469 1470 1470 1471 1471 1472 1472 1472 1472 1473 1474 1475 1476 1477 1478 1478 1479 1480 1481 1482 1483 1483 1484 1484 1485 1486 1487 1487 1489 1489 1490 1491 1492 1492 1493 1494 1495 1496 1496 1497 1498 1498 1499 1500 1501 1502 1502 1503 1504 1504 1505 1506 1507 1507 1507 1508 1507 1507 1507 1507 1507 1506 1506 1505 1504 1504 1503 1503 1502 1501 1500
1468 1469 1469 1469 1469 1467 1466 1465 1465 1464 1465 1465 1466 1467 1467 1468 1468 1469 1470 1470 1471 1471 1471 1472 1472 1473 1474 1475 1476 1477 1477 1478 1479 1480 1480 1481 1482 1483 1483 1484 1485 1486 1487 1488 1489 1489 1490 1491 1491 1491 1492 1493 1494 1495 1496 1496 1497 1498 1499 1500 1501 1501 1502 1503 1503 1504 1504 1505 1505 1505 1505 1505 1505 1504 1504 1503 1503 1502 1503 1502 1502 1501 1501 1500 1499
1465 1464 1464 1464 1464 1464 1464 1463 1463 1463 1463 1463 1464 1465 1465 1466 1466 1467 1468 1468 1469 1470 1470 1470 1471 1471 1472 1473 1474 1475 1476 1477 1478 1478 1479 1479 1480 1481 1481 1482 1483 1485 1485 1486 1487 1488 1488 1489 1489 1490 1490 1491 1492 1492 1493 1494 1495 1496 1497 1498 1499 1500 1500 1500 1500 1501 1502 1502 1502 1503 1503 1502 1502 1501 1501 1501 1501 1501 1502 1501 1501 1500 1500 1499 1498
1461 1460 1460 1460 1459 1459 1460 1461 1461 1461 1461 1461 1462 1463 1463 1464 1464 1465 1466 1466 1467 1468 1468 1469 1469 1470 1470 1471 1472 1473 1474 1476 1477 1477 1477 1478 1479 1479 1480 1481 1482 1483 1483 1484 1485 1485 1486 1486 1487 1488 1488 1489 1490 1491 1492 1493 1494 1495 1495 1496 1497 1497 1496 1496 1497 1498 1499 1499 1499 1499 1499 1499 1499 1498 1499 1499 1500 1500 1500 1500 1500 1499 1498 1497 1497
1455 1456 1456 1456 1456 1456 1457 1459 1460 1460 1461 1461 1461 1461 1461 1462 1463 1463 1464 1464 1465 1465 1466 1466 1467 1468 1468 1469 1470 1471 1472 1473 1474 1475 1475 1476 1477 1478 1478 1479 1480 1480 1481 1481 1482 1483 1483 1484 1485 1486 1487 1487 1488 1489 1490 1490 1491 1492 1492 1493 1494 1493 1493 1494 1495 1495 1495 1495 1495 1496 1496 1496 1496 1496 1497 1497 1498 1499 1499 1498 1498 1497 1497 1496 1495
1451 1452 1451 1452 1454 1456 1457 1458 1459 1460 1461 1461 1461 1461 1461 1461 1461 1462 1462 1462 1463 1463 1463 1464 1465 1465 1466 1467 1468 1469 1470 1470 1471 1472 1473 1473 1474 1475 1476 1476 1477 1477 1478 1479 1479 1480 1481 1482 1483 1484 1485 1486 1486 1487 1487 1487 1488 1489 1489 1490 1491 1491 1491 1491 1492 1492 1492 1492 1492 1492 1493 1493 1493 1494 1495 1496 1497 1497 1497 1497 1496 1495 1495 1494 1493
1448 1449 1451 1453 1456 1458 1459 1460 1461 1461 1461 1461 1461 1461 1461 1460 1461 1461 1461 1461 1461 1461 1461 1461 1462 1463 1463 1464 1465 1466 1467 1468 1469 1470 1471 1471 1472 1472 1473 1473 1474 1474 1475 1475 1476 1477 1478 1479 1481 1482 1483 1483 1483 1484 1484 1485 1485 1486 1487 1487 1488 1489 1489 1489 1489 1489 1488 1489 1489 1490 1490 1491 1492 1492 1493 1494 1495 1496 1495 1495 1495 1494 1493 1492 1492
1446 1451 1454 1455 1456 1457 1457 1459 1460 1461 1461 1461 1460 1460 1460 1459 1460 1460 1460 1460 1460 1460 1459 1459 1460 1461 1461 1462 1463 1463 1464 1465 1466 1467 1468 1468 1469 1470 1470 1471 1472 1472 1473 1473 1474 1475 1476 1477 1479 1479 1480 1480 1481 1482 1482 1483 1483 1484 1485 1485 1485 1486 1486 1486 1486 1486 1486 1486 1487 1488 1488 1490 1491 1491 1492 1493 1494 1494 1494 1494 1494 1493 1492 1491 1491
1448 1452 1453 1453 1453 1454 1455 1455 1455 1456 1457 1459 1459 1459 1458 1458 1458 1458 1458 1459 1459 1459 1457 1457 1458 1458 1459 1459 1460 1461 1462 1463 1463 1464 1465 1465 1466 1467 1468 1468 1469 1471 1472 1472 1473 1474 1475 1476 1476 1477 1478 1478 1479 1479 1480 1481 1481 1482 1482 1482 1483 1484 1484 1484 1484 1485 1485 1485 1486 1487 1488 1489 1490 1490 1491 1492 1493 1493 1493 1493 1492 1492 1491 1490 1490
1448 1448 1447 1448 1450 1451 1452 1452 1451 1452 1453 1455 1456 1457 1457 1456 1456 1456 1456 1457 1457 1457 1456 1455 1455 1456 1456 1457 1458 1458 1459 1460 1460 1461 1462 1463 1463 1464 1465 1466 1467 1468 1469 1470 1471 1472 1472 1473 1474 1475 1475 1476 1477 1478 1478 1479 1479 1480 1480 1480 1480 1481 1482 1482 1483 1484 1484 1484 1485 1487 1488 1489 1489 1490 1490 1491 1492 1492 1492 1492 1491 1490 1490 1489 1488
1444 1443 1442 1443 1445 1447 1449 1450 1450 1451 1452 1453 1454 1454 1455 1454 1453 1453 1454 1455 1455 1455 1454 1454 1453 1453 1453 1454 1455 1455 1456 1457 1457 1458 1459 1460 1461 1462 1462 1463 1464 1465 1466 1468 1469 1469 1470 1471 1472 1472 1473 1474 1475 1476 1476 1477 1478 1478 1478 1479 1479 1479 1480 1481 1482 1483 1483 1484 1485 1486 1487 1488 1488 1489 1489 1490 1490 1490 1490 1490 1490 1489 1489 1488 1488
1440 1440 1439 1440 1441 1443 1444 1445 1447 1449 1451 1452 1451 1452 1452 1452 1451 1451 1452 1452 1453 1453 1453 1452 1452 1451 1450 1451 1453 1454 1454 1454 1455 1456 1456 1457 1458 1459 1459 1460 1461 1462 1463 1465 1466 1467 1468 1469 1470 1470 1471 1472 1473 1473 1474 1475 1476 1476 1477 1478 1478 1478 1479 1480 1481 1482 1483 1484 1485 1486 1486 1486 1487 1487 1487 1488 1488 1488 1488 1488 1488 1488 1488 1488 1487
1438 1437 1437 1437 1438 1439 1440 1441 1442 1445 1447 1448 1449 1449 1449 1449 1449 1449 1449 1450 1450 1451 1451 1451 1451 1449 1449 1450 1451 1452 1452 1452 1453 1453 1454 1454 1455 1456 1456 1457 1458 1459 1460 1462 1463 1464 1466 1467 1467 1468 1469 1469 1471 1471 1472 1473 1475 1475 1476 1476 1477 1478 1479 1480 1480 1481 1482 1483 1484 1484 1484 1485 1485 1485 1485 1486 1486 1486 1486 1487 1487 1487 1487 1487 1487
1437 1436 1435 1435 1436 1436 1437 1438 1439 1441 1444 1445 1446 1446 1447 1447 1447 1447 1447 1448 1448 1449 1449 1449 1449 1448 1447 1448 1449 1449 1449 1450 1450 1451 1451 1452 1452 1453 1454 1454 1455 1456 1457 1459 1460 1462 1463 1465 1466 1466 1466 1467 1469 1469 1470 1472 1473 1474 1475 1476 1476 1477 1478 1479 1479 1480 1481 1481 1482 1482 1482 1483 1483 1483 1484 1484 1484 1484 1485 1485 1485 1486 1485 1485 1485
1435 1435 1434 1433 1433 1434 1435 1436 1437 1438 1440 1442 1443 1444 1445 1445 1445 1445 1445 1446 1446 1446 1447 1448 1447 1446 1445 1446 1446 1446 1447 1447 1448 1448 1449 1450 1450 1451 1452 1452 1453 1454 1455 1456 1458 1459 1461 1463 1464 1464 1465 1466 1467 1468 1469 1470 1472 1473 1474 1475 1475 1476 1477 1478 1478 1478 1478 1479 1480 1480 1480 1481 1481 1482 1482 1483 1483 1483 1483 1483 1484 1484 1483 1482 1483
1432 1432 1431 1430 1431 1432 1432 1433 1434 1436 1438 1440 1440 1441 1442 1442 1442 1443 1443 1444 1444 1444 1445 1446 1446 1444 1443 1443 1444 1444 1445 1445 1446 1446 1447 1448 1449 1449 1450 1451 1452 1453 1453 1454 1456 1457 1458 1460 1462 1462 1463 1464 1466 1467 1468 1469 1470 1471 1473 1473 1473 1474 1475 1476 1476 1476 1477 1478 1478 1479 1479 1479 1480 1480 1481 1481 1481 1481 1481 1481 1482 1482 1481 1480 1481
1431 1430 1428 1428 1428 1429 1430 1431 1432 1434 1435 1437 1438 1439 1439 1439 1440 1440 1441 1441 1442 1442 1443 1444 1444 1443 1441 1441 1442 1442 1442 1443 1443 1444 1444 1445 1446 1447 1448 1448 1449 1450 1452 1453 1454 1455 1456 1458 1459 1460 1462 1464 1465 1465 1466 1467 1468 1470 1471 1471 1472 1472 1472 1474 1474 1475 1475 1476 1476 1477 1477 1478 1478 1479 1479 1479 1479 1479 1479 1480 1480 1480 1479 1479 1479
1428 1428 1427 1426 1426 1426 1428 1429 1430 1431 1432 1433 1434 1436 1437 1438 1438 1438 1439 1439 1440 1441 1441 1442 1442 1442 1441 1440 1440 1440 1441 1441 1441 1441 1442 1443 1444 1445 1445 1446 1447 1448 1449 1451 1452 1453 1454 1456 1457 1459 1460 1462 1463 1464 1465 1466 1467 1468 1468 1469 1470 1470 1471 1471 1472 1472 1473 1473 1474 1474 1475 1476 1476 1476 1477 1477 1477 1478 1478 1478 1478 1478 1478 1478 1478
1425 1425 1424 1424 1423 1424 1426 1427 1428 1429 1430 1430 1430 1433 1435 1436 1436 1437 1437 1437 1438 1439 1440 1440 1441 1441 1440 1439 1439 1439 1439 1439 1439 1439 1440 1441 1442 1443 1443 1443 1445 1446 1447 1449 1450 1451 1452 1454 1455 1457 1458 1460 1461 1461 1462 1464 1465 1465 1466 1467 1468 1468 1469 1469 1469 1470 1470 1471 1472 1472 1473 1473 1474 1474 1475 1475 1475 1476 1476 1476 1476 1476 1476 1476 1476
1423 1422 1422 1422 1422 1423 1424 1425 1426 1427 1426 1426 1428 1430 1433 1434 1435 1435 1435 1436 1436 1437 1438 1439 1439 1439 1439 1438 1437 1437 1437 1437 1437 1438 1438 1439 1440 1441 1441 1442 1443 1444 1445 1447 1448 1449 1450 1451 1453 1455 1456 1457 1458 1459 1460 1461 1462 1463 1464 1464 1465 1466 1467 1467 1467 1468 1469 1469 1470 1470 1471 1471 1472 1473 1473 1473 1473 1474 1474 1474 1473 1474 1474 1474 1474
1420 1419 1419 1420 1420 1421 1422 1423 1423 1423 1422 1423 1425 1428 1431 1432 1433 1433 1434 1434 1435 1435 1436 1436 1436 1437 1437 1437 1436 1436 1436 1436 1436 1437 1437 1438 1439 1439 1439 1440 1441 1442 1444 1445 1447 1448 1448 1449 1451 1452 1453 1454 1456 1457 1457 1457 1459 1460 1461 1461 1462 1463 1465 1465 1465 1466 1467 1468 1468 1469 1469 1469 1470 1470 1471 1471 1472 1472 1472 1472 1472 1472 1472 1472 1472
1418 1418 1417 1417 1417 1418 1418 1419 1420 1420 1420 1422 1424 1427 1428 1430 1431 1432 1432 1432 1433 1433 1434 1434 1434 1434 1435 1435 1434 1434 1434 1435 1435 1436 1436 1437 1437 1437 1438 1439 1440 1441 1443 1444 1445 1445 1446 1447 1449 1450 1452 1452 1453 1454 1454 1454 1456 1457 1458 1459 1460 1461 1462 1463 1464 1465 1465 1466 1466 1467 1467 1467 1467 1468 1468 1469 1469 1469 1469 1469 1469 1469 1469 1469 1469